Bowling Green, KY

10:25 PM CDT on October 22, 2019 (GMT -0500)
Bowling Green-Warren County Regional

Weather History for KBWG - September, 2019

Change the Weather History Date:

Saturday, September 21, 2019

  Actual Average Record
Temperature  
Mean Temperature 78 °F 68 °F  
Max Temperature 91 °F 80 °F 100 °F (1931)
Min Temperature 64 °F 56 °F 37 °F (1927)
Degree Days  
Heating Degree Days 0 2  
Month to date heating degree days 0 9  
Since 1 July heating degree days 0 10  
Cooling Degree Days 13 5  
Month to date cooling degree days 299 155  
Year to date cooling degree days 1775 1424  
Growing Degree Days 28 (Base 50)    
Moisture  
Dew Point 57 °F    
Average Humidity 54    
Maximum Humidity 81    
Minimum Humidity 27    
Precipitation  
Precipitation 0.00 in 0.13 in 2.91 in (1990)
Month to date precipitation T 2.74  
Year to date precipitation 43.00 36.30  
Snow  
Snow 0.00 in 0.00 in 0.00 in ()
Month to date snowfall 0.0 0.0  
Since 1 July snowfall 0.0 0.0  
Since 1 September snowfall 0.0 0.0  
Snow Depth 0.00 in    
Sea Level Pressure  
Sea Level Pressure 30.20 in    
Wind  
Wind Speed 6 mph (SSW)    
Max Wind Speed 14 mph    
Max Gust Speed 23 mph    
Visibility 10 miles    
Events      
T = Trace of Precipitation, MM = Missing Value Source: NWS Daily Summary

Daily Weather History Graph

Daily Weather History Graph

Search for Another Location

Airport or City:

Astronomy

Sep. 21, 2019 Rise Set
Actual Time 6:32 AM CDT 6:44 PM CDT
Civil Twilight 6:06 AM CDT 7:10 PM CDT
Nautical Twilight 5:36 AM CDT 7:40 PM CDT
Astronomical Twilight 5:05 AM CDT 8:11 PM CDT
Moon 11:31 PM CDT (9/21) 1:28 PM CDT (9/21)
Length of Visible Light 13h 03m
Length of Day
12h 11m
Waning Gibbous, 54% of the Moon is Illuminated
Sep 21
Waning Gibbous
Sep 21
Last Quarter
Sep 28
New
Oct 5
First Quarter
Oct 13
Full

Hourly Weather History & Observations

Time (CDT) Temp. Heat Index Dew Point Humidity Pressure Visibility Wind Dir Wind Speed Gust Speed Precip Events Conditions
12:53 AM 70.0 °F - 62.1 °F 76% 30.19 in 10.0 mi Calm Calm - N/A   Clear
1:53 AM 68.0 °F - 62.1 °F 81% 30.20 in 10.0 mi NE 3.5 mph - N/A   Clear
2:53 AM 71.1 °F - 60.1 °F 68% 30.20 in 10.0 mi South 3.5 mph - N/A   Clear
3:53 AM 66.9 °F - 60.1 °F 79% 30.22 in 10.0 mi Calm Calm - N/A   Clear
4:53 AM 68.0 °F - 60.1 °F 76% 30.23 in 10.0 mi Calm Calm - N/A   Clear
5:53 AM 70.0 °F - 59.0 °F 68% 30.24 in 10.0 mi South 6.9 mph - N/A   Clear
6:53 AM 70.0 °F - 57.9 °F 65% 30.25 in 10.0 mi South 5.8 mph - N/A   Clear
7:53 AM 72.0 °F - 59.0 °F 64% 30.27 in 10.0 mi South 5.8 mph - N/A   Clear
8:53 AM 77.0 °F - 57.9 °F 52% 30.28 in 10.0 mi SSW 11.5 mph - N/A   Clear
9:53 AM 82.0 °F 81.4 °F 55.0 °F 39% 30.28 in 10.0 mi SSW 12.7 mph - N/A   Clear
10:53 AM 84.9 °F 83.3 °F 54.0 °F 34% 30.26 in 10.0 mi SW 10.4 mph - N/A   Clear
11:53 AM 87.1 °F 85.7 °F 55.9 °F 35% 30.24 in 10.0 mi SSW 8.1 mph - N/A   Clear
12:53 PM 88.0 °F 86.1 °F 55.0 °F 32% 30.22 in 10.0 mi SW 10.4 mph - N/A   Clear
1:53 PM 90.0 °F 88.1 °F 55.9 °F 31% 30.19 in 10.0 mi SSW 12.7 mph 18.4 mph N/A   Clear
2:53 PM 89.1 °F 87.3 °F 55.9 °F 32% 30.17 in 10.0 mi SW 10.4 mph - N/A   Clear
3:53 PM 90.0 °F 87.7 °F 54.0 °F 29% 30.15 in 10.0 mi South 9.2 mph - N/A   Clear
4:53 PM 89.1 °F - 52.0 °F 28% 30.14 in 10.0 mi SSW 9.2 mph - N/A   Clear
5:53 PM 87.1 °F - 51.1 °F 29% 30.14 in 10.0 mi SSW 6.9 mph - N/A   Clear
6:53 PM 84.9 °F - 52.0 °F 32% 30.14 in 10.0 mi South 4.6 mph - N/A   Clear
7:53 PM 75.9 °F - 57.0 °F 52% 30.14 in 10.0 mi Calm Calm - N/A   Clear
8:53 PM 73.0 °F - 57.9 °F 59% 30.15 in 10.0 mi Calm Calm - N/A   Clear
9:53 PM 70.0 °F - 57.9 °F 65% 30.15 in 10.0 mi Calm Calm - N/A   Clear
10:53 PM 66.9 °F - 57.0 °F 70% 30.15 in 10.0 mi Calm Calm - N/A   Clear
11:53 PM 66.9 °F - 57.9 °F 73% 30.15 in 10.0 mi East 3.5 mph - N/A   Clear